TimeCST,TemperatureF,Dew PointF,Humidity,Sea Level PressureIn,VisibilityMPH,Wind Direction,Wind SpeedMPH,Gust SpeedMPH,PrecipitationIn,Events,Conditions,WindDirDegrees,DateUTC
12:15 AM,-0.4,-4.0,85,29.72,10.0,Calm,Calm,-,N/A,,Mostly Cloudy,0,2012-12-11 06:15:00
12:34 AM,1.4,-2.2,85,29.71,10.0,Calm,Calm,-,N/A,Snow,Light Snow,0,2012-12-11 06:34:00
12:53 AM,1.4,-2.2,85,29.71,10.0,South,3.5,-,N/A,Snow,Light Snow,190,2012-12-11 06:53:00
1:15 AM,3.2,-0.4,85,29.70,10.0,SSW,3.5,-,N/A,Snow,Light Snow,210,2012-12-11 07:15:00
1:35 AM,3.2,-0.4,85,29.70,10.0,SSW,3.5,-,N/A,Snow,Light Snow,210,2012-12-11 07:35:00
1:53 AM,3.2,1.4,92,29.70,10.0,Calm,Calm,-,N/A,Snow,Light Snow,0,2012-12-11 07:53:00
2:15 AM,5.0,1.4,85,29.70,7.0,Calm,Calm,-,N/A,Snow,Light Snow,0,2012-12-11 08:15:00
2:34 AM,5.0,1.4,85,29.70,7.0,SW,6.9,-,N/A,Snow,Light Snow,230,2012-12-11 08:34:00
2:53 AM,6.8,3.2,85,29.70,10.0,SW,6.9,-,N/A,Snow,Light Snow,230,2012-12-11 08:53:00
3:15 AM,6.8,3.2,85,29.70,10.0,SW,5.8,-,N/A,Snow,Light Snow,230,2012-12-11 09:15:00
3:35 AM,6.8,3.2,85,29.70,7.0,WSW,6.9,-,N/A,Snow,Light Snow,250,2012-12-11 09:35:00
3:52 AM,6.8,3.2,85,29.69,10.0,WSW,4.6,-,N/A,Snow,Light Snow,250,2012-12-11 09:52:00
4:15 AM,6.8,3.2,85,29.69,10.0,WSW,8.1,-,N/A,Snow,Light Snow,250,2012-12-11 10:15:00
4:35 AM,5.0,1.4,85,29.70,10.0,West,8.1,-,N/A,Snow,Light Snow,260,2012-12-11 10:35:00
4:52 AM,3.2,1.4,92,29.71,10.0,WSW,6.9,-,N/A,Snow,Light Snow,250,2012-12-11 10:52:00
5:15 AM,3.2,-0.4,85,29.71,10.0,West,5.8,-,N/A,Snow,Light Snow,260,2012-12-11 11:15:00
5:35 AM,1.4,-0.4,92,29.71,10.0,West,6.9,-,N/A,Snow,Light Snow,260,2012-12-11 11:35:00
5:52 AM,1.4,-2.2,85,29.72,10.0,West,5.8,-,N/A,,Clear,260,2012-12-11 11:52:00
6:15 AM,1.4,-2.2,85,29.72,10.0,West,5.8,-,N/A,,Clear,270,2012-12-11 12:15:00
6:35 AM,-0.4,-2.2,92,29.72,10.0,West,4.6,-,N/A,,Clear,270,2012-12-11 12:35:00
6:52 AM,1.4,-2.2,85,29.72,10.0,West,5.8,-,N/A,,Mostly Cloudy,280,2012-12-11 12:52:00
7:15 AM,1.4,-0.4,92,29.72,10.0,West,4.6,-,N/A,Snow,Light Snow,270,2012-12-11 13:15:00
7:35 AM,3.2,-0.4,85,29.73,10.0,West,5.8,-,N/A,Snow,Light Snow,280,2012-12-11 13:35:00
7:52 AM,3.2,1.4,92,29.74,10.0,WNW,8.1,-,N/A,Snow,Light Snow,290,2012-12-11 13:52:00
8:15 AM,3.2,-0.4,85,29.75,10.0,WNW,9.2,-,N/A,Snow,Light Snow,300,2012-12-11 14:15:00
8:35 AM,3.2,-0.4,85,29.75,7.0,WNW,8.1,-,N/A,Snow,Light Snow,290,2012-12-11 14:35:00
8:52 AM,3.2,-0.4,85,29.76,7.0,WNW,9.2,-,N/A,Snow,Light Snow,290,2012-12-11 14:52:00
9:15 AM,3.2,-0.4,85,29.76,3.0,WNW,8.1,-,N/A,Snow,Light Snow,290,2012-12-11 15:15:00
9:35 AM,3.2,-0.4,85,29.77,2.5,WNW,9.2,-,N/A,Snow,Light Snow,290,2012-12-11 15:35:00
9:52 AM,3.2,-0.4,85,29.78,1.5,West,8.1,-,N/A,Snow,Light Snow,280,2012-12-11 15:52:00
10:15 AM,5.0,1.4,85,29.79,1.5,West,8.1,-,N/A,Snow,Light Snow,280,2012-12-11 16:15:00
10:35 AM,5.0,1.4,85,29.79,2.0,WNW,11.5,-,N/A,Snow,Light Snow,290,2012-12-11 16:35:00
10:52 AM,6.8,1.4,79,29.80,2.5,WNW,10.4,16.1,N/A,Snow,Light Snow,300,2012-12-11 16:52:00
11:15 AM,6.8,1.4,79,29.80,3.0,West,11.5,16.1,N/A,Snow,Light Snow,280,2012-12-11 17:15:00
11:35 AM,6.8,1.4,79,29.79,4.0,WNW,9.2,-,N/A,Snow,Light Snow,300,2012-12-11 17:35:00
11:52 AM,8.6,1.4,73,29.79,5.0,WNW,10.4,-,N/A,Snow,Light Snow,290,2012-12-11 17:52:00
12:15 PM,6.8,1.4,79,29.80,10.0,WNW,10.4,-,N/A,,Mostly Cloudy,290,2012-12-11 18:15:00
12:35 PM,6.8,1.4,79,29.80,7.0,WNW,10.4,16.1,N/A,Snow,Light Snow,300,2012-12-11 18:35:00
12:52 PM,6.8,1.4,79,29.80,10.0,West,9.2,-,N/A,,Mostly Cloudy,280,2012-12-11 18:52:00
1:15 PM,8.6,1.4,73,29.80,10.0,West,8.1,-,N/A,Snow,Light Snow,280,2012-12-11 19:15:00
1:35 PM,8.6,1.4,73,29.81,10.0,WNW,9.2,-,N/A,,Scattered Clouds,300,2012-12-11 19:35:00
1:52 PM,8.6,1.4,73,29.81,10.0,West,8.1,-,N/A,,Clear,270,2012-12-11 19:52:00
2:14 PM,8.6,1.4,73,29.82,10.0,West,9.2,16.1,N/A,,Clear,280,2012-12-11 20:14:00
2:35 PM,8.6,1.4,73,29.82,10.0,WNW,9.2,-,N/A,,Clear,290,2012-12-11 20:35:00
2:52 PM,8.6,1.4,73,29.82,10.0,WNW,8.1,-,N/A,,Clear,300,2012-12-11 20:52:00
3:15 PM,8.6,1.4,73,29.83,10.0,WNW,4.6,-,N/A,,Clear,290,2012-12-11 21:15:00
3:35 PM,6.8,-0.4,72,29.84,10.0,West,8.1,-,N/A,,Clear,280,2012-12-11 21:35:00
3:52 PM,6.8,-0.4,72,29.84,10.0,WNW,5.8,-,N/A,,Clear,300,2012-12-11 21:52:00
4:15 PM,5.0,-0.4,78,29.84,10.0,NW,4.6,-,N/A,,Clear,310,2012-12-11 22:15:00
4:35 PM,3.2,-0.4,85,29.84,10.0,WNW,3.5,-,N/A,,Clear,300,2012-12-11 22:35:00
4:53 PM,3.2,-0.4,85,29.85,10.0,WNW,3.5,-,N/A,,Clear,300,2012-12-11 22:53:00
5:15 PM,1.4,-2.2,85,29.85,10.0,Calm,Calm,-,N/A,,Clear,0,2012-12-11 23:15:00
5:34 PM,1.4,-2.2,85,29.86,10.0,Calm,Calm,-,N/A,,Clear,0,2012-12-11 23:34:00
5:53 PM,1.4,-2.2,85,29.86,10.0,Calm,Calm,-,N/A,,Clear,0,2012-12-11 23:53:00
6:14 PM,-0.4,-4.0,85,29.87,10.0,Calm,Calm,-,N/A,,Clear,0,2012-12-12 00:14:00
6:35 PM,-0.4,-4.0,85,29.87,10.0,Calm,Calm,-,N/A,,Clear,0,2012-12-12 00:35:00
6:53 PM,-2.2,-5.8,85,29.87,10.0,Calm,Calm,-,N/A,,Clear,0,2012-12-12 00:53:00
7:15 PM,-2.2,-5.8,85,29.87,10.0,Calm,Calm,-,N/A,,Clear,0,2012-12-12 01:15:00
7:35 PM,-4.0,-7.6,85,29.89,10.0,Calm,Calm,-,N/A,,Clear,0,2012-12-12 01:35:00
7:52 PM,-5.8,-9.4,84,29.90,10.0,Calm,Calm,-,N/A,,Clear,0,2012-12-12 01:52:00
8:15 PM,-5.8,-9.4,84,29.91,10.0,Calm,Calm,-,N/A,,Clear,0,2012-12-12 02:15:00
8:35 PM,-5.8,-9.4,84,29.90,10.0,Calm,Calm,-,N/A,,Clear,0,2012-12-12 02:35:00
8:53 PM,-7.6,-11.2,84,29.90,10.0,Calm,Calm,-,N/A,,Clear,0,2012-12-12 02:53:00
9:15 PM,-7.6,-9.4,92,29.91,10.0,Calm,Calm,-,N/A,,Clear,0,2012-12-12 03:15:00
9:34 PM,-7.6,-11.2,84,29.90,10.0,Calm,Calm,-,N/A,,Clear,0,2012-12-12 03:34:00
9:53 PM,-7.6,-11.2,84,29.90,10.0,Calm,Calm,-,N/A,,Clear,0,2012-12-12 03:53:00
10:15 PM,-5.8,-9.4,84,29.90,10.0,Calm,Calm,-,N/A,,Clear,0,2012-12-12 04:15:00
10:33 PM,-7.6,-11.2,84,29.90,10.0,Calm,Calm,-,N/A,,Clear,0,2012-12-12 04:33:00
10:53 PM,-7.6,-11.2,84,29.90,10.0,Calm,Calm,-,N/A,,Clear,0,2012-12-12 04:53:00
11:15 PM,-7.6,-11.2,84,29.91,10.0,Calm,Calm,-,N/A,,Clear,0,2012-12-12 05:15:00
11:35 PM,-7.6,-11.2,84,29.91,10.0,East,3.5,-,N/A,,Unknown,80,2012-12-12 05:35:00
11:52 PM,-5.8,-7.6,92,29.91,10.0,East,4.6,-,N/A,,Clear,80,2012-12-12 05:52:00